DLH6PJ EDDH-EDDF

Flight info

Callsign DLH6PJ
Flight time 0h 46m
Altitude 32000
Route AMLUH2G AMLUH M852 DENIX DCT RIMET T157 KERAX KERAX5A
Aircraft A320/M-SDE3FGHIRWY/LB1

Departure

Time 2026-05-06 16:07
Airport Hamburg Helmut Schmidt Airport (EDDH)

Arrival

Time 2026-05-06 16:54
Airport Frankfurt Main Airport (EDDF)
Time Latitude Longitude Altitude Speed Heading
2026-05-06 15:30 53.63247 10.00361 51 ft 0 kts 85°
2026-05-06 15:54 53.63246 10.00345 51 ft 2 kts 86°
2026-05-06 15:54 53.63245 10.00318 51 ft 2 kts 88°
2026-05-06 15:54 53.63245 10.00290 51 ft 2 kts 86°
2026-05-06 15:55 53.63246 10.00262 51 ft 2 kts 123°
2026-05-06 15:55 53.63258 10.00244 48 ft 2 kts 165°
2026-05-06 15:55 53.63266 10.00240 49 ft 1 kts 176°
2026-05-06 15:57 53.63263 10.00240 49 ft 2 kts 176°
2026-05-06 15:57 53.63214 10.00246 51 ft 9 kts 176°
2026-05-06 15:57 53.63154 10.00253 47 ft 8 kts 176°
2026-05-06 15:57 53.63081 10.00260 51 ft 13 kts 185°
2026-05-06 15:58 53.63009 10.00196 51 ft 11 kts 211°
2026-05-06 15:58 53.63003 10.00189 51 ft 0 kts 211°
2026-05-06 15:58 53.63000 10.00185 51 ft 3 kts 215°
2026-05-06 15:58 53.62985 10.00118 51 ft 8 kts 257°
2026-05-06 15:59 53.62958 10.00065 50 ft 6 kts 214°
2026-05-06 15:59 53.62931 10.00024 50 ft 5 kts 232°
2026-05-06 15:59 53.62917 9.99981 50 ft 2 kts 243°
2026-05-06 15:59 53.62911 9.99961 50 ft 2 kts 243°
2026-05-06 16:00 53.62910 9.99957 50 ft 0 kts 243°
2026-05-06 16:01 53.62909 9.99955 50 ft 2 kts 243°
2026-05-06 16:01 53.62898 9.99917 50 ft 4 kts 243°
2026-05-06 16:02 53.62895 9.99907 50 ft 0 kts 243°
2026-05-06 16:05 53.62888 9.99883 49 ft 4 kts 243°
2026-05-06 16:05 53.62868 9.99818 49 ft 8 kts 243°
2026-05-06 16:05 53.62880 9.99732 49 ft 8 kts 328°
2026-05-06 16:06 53.62890 9.99724 49 ft 0 kts 334°
2026-05-06 16:06 53.63005 9.99625 49 ft 53 kts 333°
2026-05-06 16:07 53.63544 9.99158 51 ft 118 kts 333°
2026-05-06 16:07 53.64441 9.98402 117 ft 161 kts 338°
2026-05-06 16:07 53.65422 9.97574 791 ft 159 kts 337°
2026-05-06 16:07 53.66413 9.96723 1497 ft 163 kts 338°
2026-05-06 16:08 53.67493 9.95799 1866 ft 185 kts 339°
2026-05-06 16:08 53.68735 9.94872 2233 ft 203 kts 351°
2026-05-06 16:08 53.70151 9.94703 2852 ft 206 kts
2026-05-06 16:08 53.71585 9.94740 3645 ft 207 kts
2026-05-06 16:09 53.72880 9.95663 4346 ft 206 kts 45°
2026-05-06 16:09 53.73587 9.97754 5043 ft 210 kts 75°
2026-05-06 16:09 53.73912 10.00150 5786 ft 213 kts 76°
2026-05-06 16:09 53.74060 10.02670 6485 ft 219 kts 94°
2026-05-06 16:10 53.73683 10.05216 7042 ft 236 kts 113°
2026-05-06 16:10 53.72846 10.07779 7425 ft 261 kts 118°
2026-05-06 16:10 53.71922 10.10510 8042 ft 274 kts 118°
2026-05-06 16:10 53.71180 10.12761 8691 ft 278 kts 118°
2026-05-06 16:11 53.70220 10.15632 9563 ft 283 kts 119°
2026-05-06 16:11 53.69049 10.18335 10357 ft 289 kts 134°
2026-05-06 16:11 53.67439 10.20551 10728 ft 311 kts 149°
2026-05-06 16:11 53.65377 10.22011 10973 ft 334 kts 165°
2026-05-06 16:12 53.63094 10.23016 11581 ft 342 kts 165°
2026-05-06 16:12 53.60792 10.24050 12369 ft 344 kts 165°
2026-05-06 16:12 53.58469 10.25111 13158 ft 347 kts 165°
2026-05-06 16:12 53.56129 10.26189 13908 ft 350 kts 165°
2026-05-06 16:13 53.53766 10.27282 14567 ft 354 kts 166°
2026-05-06 16:13 53.51372 10.28383 15216 ft 358 kts 166°
2026-05-06 16:13 53.48992 10.29469 15844 ft 362 kts 166°
2026-05-06 16:13 53.46547 10.30579 16491 ft 365 kts 167°
2026-05-06 16:14 53.44083 10.31700 17145 ft 369 kts 167°
2026-05-06 16:14 53.41591 10.32836 17779 ft 372 kts 167°
2026-05-06 16:14 53.39076 10.33976 18400 ft 376 kts 167°
2026-05-06 16:14 53.36535 10.35117 18991 ft 380 kts 167°
2026-05-06 16:15 53.33968 10.36269 19568 ft 384 kts 167°
2026-05-06 16:15 53.31371 10.37432 20143 ft 387 kts 167°
2026-05-06 16:15 53.28759 10.38598 20694 ft 390 kts 167°
2026-05-06 16:15 53.26164 10.39757 21220 ft 394 kts 166°
2026-05-06 16:16 53.23450 10.40969 21754 ft 397 kts 166°
2026-05-06 16:16 53.20784 10.42160 22265 ft 400 kts 166°
2026-05-06 16:16 53.18084 10.43366 22787 ft 403 kts 166°
2026-05-06 16:16 53.15360 10.44574 23281 ft 406 kts 167°
2026-05-06 16:17 53.12612 10.45309 23699 ft 407 kts 177°
2026-05-06 16:17 53.09775 10.45263 24113 ft 408 kts 186°
2026-05-06 16:17 53.06940 10.44860 24520 ft 410 kts 186°
2026-05-06 16:17 53.04082 10.44460 24920 ft 412 kts 185°
2026-05-06 16:18 53.01220 10.44073 25316 ft 414 kts 185°
2026-05-06 16:18 52.98343 10.43689 25706 ft 416 kts 185°
2026-05-06 16:18 52.95446 10.43300 26088 ft 418 kts 186°
2026-05-06 16:18 52.92536 10.42903 26459 ft 420 kts 186°
2026-05-06 16:19 52.89618 10.42503 26832 ft 422 kts 186°
2026-05-06 16:19 52.86682 10.42102 27198 ft 424 kts 186°
2026-05-06 16:19 52.83734 10.41703 27594 ft 426 kts 186°
2026-05-06 16:19 52.80770 10.41302 27973 ft 428 kts 186°
2026-05-06 16:20 52.77795 10.40898 28328 ft 430 kts 186°
2026-05-06 16:20 52.74800 10.40491 28652 ft 432 kts 186°
2026-05-06 16:20 52.71799 10.40085 28972 ft 433 kts 186°
2026-05-06 16:20 52.68815 10.39680 29306 ft 435 kts 186°
2026-05-06 16:21 52.65772 10.39271 29614 ft 436 kts 186°
2026-05-06 16:21 52.62745 10.38865 29890 ft 437 kts 186°
2026-05-06 16:21 52.59745 10.38460 30116 ft 438 kts 187°
2026-05-06 16:21 52.56717 10.38050 30426 ft 436 kts 187°
2026-05-06 16:22 52.53643 10.37638 30653 ft 437 kts 187°
2026-05-06 16:22 52.50649 10.37235 30758 ft 439 kts 187°
2026-05-06 16:22 52.47596 10.36825 30880 ft 441 kts 187°
2026-05-06 16:22 52.44547 10.36418 30999 ft 442 kts 187°
2026-05-06 16:23 52.41457 10.36008 31120 ft 443 kts 187°
2026-05-06 16:23 52.38384 10.35601 31248 ft 443 kts 187°
2026-05-06 16:23 52.35300 10.35191 31372 ft 444 kts 187°
2026-05-06 16:23 52.32219 10.34782 31482 ft 443 kts 187°
2026-05-06 16:24 52.29146 10.34372 31625 ft 443 kts 187°
2026-05-06 16:24 52.27119 10.34104 31744 ft 442 kts 187°
2026-05-06 16:24 52.20990 10.33288 31809 ft 441 kts 187°
2026-05-06 16:25 52.14861 10.32485 31806 ft 440 kts 187°
2026-05-06 16:25 52.08768 10.31695 31805 ft 429 kts 187°
2026-05-06 16:26 52.02970 10.30938 31800 ft 418 kts 187°
2026-05-06 16:26 51.97182 10.30172 31796 ft 417 kts 187°
2026-05-06 16:27 51.91417 10.29419 31794 ft 416 kts 187°
2026-05-06 16:27 51.85648 10.28669 31793 ft 416 kts 187°
2026-05-06 16:28 51.79875 10.27918 31784 ft 416 kts 187°
2026-05-06 16:28 51.74106 10.27172 31784 ft 416 kts 187°
2026-05-06 16:29 51.68348 10.26422 31783 ft 415 kts 187°
2026-05-06 16:29 51.62582 10.25671 31785 ft 415 kts 187°
2026-05-06 16:30 51.57783 10.25050 31777 ft 415 kts 187°
2026-05-06 16:30 51.51081 10.24193 31774 ft 416 kts 187°
2026-05-06 16:31 51.45532 10.21994 31677 ft 412 kts 203°
2026-05-06 16:31 51.42878 10.20240 31410 ft 412 kts 203°
2026-05-06 16:31 51.40224 10.18460 31155 ft 412 kts 203°
2026-05-06 16:32 51.37580 10.16675 30898 ft 413 kts 203°
2026-05-06 16:32 51.34971 10.14916 30646 ft 414 kts 203°
2026-05-06 16:32 51.32298 10.13121 30395 ft 415 kts 203°
2026-05-06 16:32 51.29636 10.11340 30150 ft 415 kts 203°
2026-05-06 16:33 51.26964 10.09560 29511 ft 416 kts 203°
2026-05-06 16:33 51.24299 10.07792 28577 ft 416 kts 203°
2026-05-06 16:33 51.21642 10.06034 27797 ft 412 kts 203°
2026-05-06 16:34 51.16369 10.02552 26377 ft 406 kts 203°
2026-05-06 16:34 51.13771 10.00836 25694 ft 402 kts 203°
2026-05-06 16:34 51.11189 9.99134 25029 ft 399 kts 203°
2026-05-06 16:34 51.08629 9.97446 24392 ft 397 kts 203°
2026-05-06 16:35 51.06089 9.95768 23764 ft 394 kts 203°
2026-05-06 16:35 51.03567 9.94101 23142 ft 392 kts 203°
2026-05-06 16:35 51.01159 9.92135 22475 ft 388 kts 213°
2026-05-06 16:35 50.98903 9.89773 21817 ft 386 kts 213°
2026-05-06 16:36 50.96674 9.87433 21222 ft 384 kts 213°
2026-05-06 16:36 50.94457 9.85105 20649 ft 381 kts 213°
2026-05-06 16:36 50.92282 9.82824 20103 ft 379 kts 213°
2026-05-06 16:36 50.90089 9.80523 19560 ft 376 kts 213°
2026-05-06 16:37 50.87912 9.78238 19028 ft 374 kts 213°
2026-05-06 16:37 50.85747 9.75964 18506 ft 372 kts 213°
2026-05-06 16:37 50.83597 9.73708 17985 ft 370 kts 213°
2026-05-06 16:37 50.81449 9.71460 17408 ft 368 kts 213°
2026-05-06 16:38 50.79324 9.69243 16857 ft 366 kts 213°
2026-05-06 16:38 50.77209 9.67043 16315 ft 363 kts 213°
2026-05-06 16:38 50.75100 9.64850 15804 ft 361 kts 213°
2026-05-06 16:38 50.73012 9.62682 15288 ft 359 kts 213°
2026-05-06 16:39 50.70935 9.60528 14774 ft 357 kts 213°
2026-05-06 16:39 50.68864 9.58377 14274 ft 354 kts 213°
2026-05-06 16:39 50.66813 9.56250 13786 ft 352 kts 213°
2026-05-06 16:39 50.64777 9.54143 13249 ft 350 kts 213°
2026-05-06 16:40 50.62741 9.52038 12699 ft 348 kts 213°
2026-05-06 16:40 50.60724 9.49956 12160 ft 345 kts 213°
2026-05-06 16:40 50.58728 9.47893 11826 ft 344 kts 213°
2026-05-06 16:40 50.56728 9.45827 11768 ft 344 kts 213°
2026-05-06 16:41 50.54722 9.43757 11782 ft 344 kts 213°
2026-05-06 16:41 50.52718 9.41692 11787 ft 345 kts 212°
2026-05-06 16:41 50.50712 9.39628 11785 ft 344 kts 212°
2026-05-06 16:41 50.48756 9.37616 11715 ft 328 kts 212°
2026-05-06 16:42 50.46902 9.35711 11582 ft 307 kts 212°
2026-05-06 16:42 50.45176 9.33940 11278 ft 290 kts 212°
2026-05-06 16:42 50.43528 9.32253 10729 ft 283 kts 212°
2026-05-06 16:42 50.41865 9.30556 10125 ft 280 kts 212°
2026-05-06 16:43 50.40259 9.28916 9500 ft 277 kts 212°
2026-05-06 16:43 50.38650 9.27273 8827 ft 274 kts 212°
2026-05-06 16:43 50.37065 9.25652 8167 ft 271 kts 212°
2026-05-06 16:43 50.35493 9.24044 7846 ft 269 kts 212°
2026-05-06 16:44 50.33975 9.22497 7782 ft 247 kts 212°
2026-05-06 16:44 50.32563 9.21060 7787 ft 239 kts 212°
2026-05-06 16:44 50.31168 9.19642 7791 ft 238 kts 212°
2026-05-06 16:44 50.29777 9.18227 7786 ft 238 kts 212°
2026-05-06 16:45 50.28397 9.16826 7509 ft 236 kts 212°
2026-05-06 16:45 50.27018 9.15428 7157 ft 235 kts 212°
2026-05-06 16:45 50.25651 9.14043 6818 ft 234 kts 212°
2026-05-06 16:45 50.24302 9.12676 6490 ft 233 kts 212°
2026-05-06 16:46 50.22971 9.11212 6162 ft 231 kts 224°
2026-05-06 16:46 50.21872 9.09395 5945 ft 230 kts 226°
2026-05-06 16:46 50.20767 9.07576 5711 ft 230 kts 226°
2026-05-06 16:46 50.19980 9.06285 5545 ft 230 kts 226°
2026-05-06 16:47 50.18878 9.04482 5323 ft 229 kts 226°
2026-05-06 16:47 50.17773 9.02682 5088 ft 228 kts 226°
2026-05-06 16:47 50.16678 9.00899 4866 ft 228 kts 226°
2026-05-06 16:47 50.15590 8.99126 4647 ft 226 kts 226°
2026-05-06 16:48 50.14502 8.97354 4410 ft 226 kts 226°
2026-05-06 16:48 50.13422 8.95593 4194 ft 226 kts 226°
2026-05-06 16:48 50.12397 8.93746 4026 ft 224 kts 239°
2026-05-06 16:48 50.11772 8.91587 3998 ft 213 kts 249°
2026-05-06 16:49 50.11285 8.89480 3997 ft 199 kts 250°
2026-05-06 16:49 50.10833 8.87532 3995 ft 187 kts 249°
2026-05-06 16:49 50.10395 8.85661 3920 ft 184 kts 249°
2026-05-06 16:49 50.09954 8.83789 3727 ft 184 kts 249°
2026-05-06 16:50 50.09517 8.81933 3501 ft 182 kts 249°
2026-05-06 16:50 50.09079 8.80075 3258 ft 182 kts 250°
2026-05-06 16:50 50.08648 8.78246 3023 ft 181 kts 250°
2026-05-06 16:50 50.08209 8.76390 2781 ft 181 kts 250°
2026-05-06 16:51 50.07777 8.74559 2561 ft 179 kts 250°
2026-05-06 16:51 50.07347 8.72744 2302 ft 177 kts 250°
2026-05-06 16:51 50.06928 8.70972 2067 ft 172 kts 250°
2026-05-06 16:51 50.06525 8.69272 1824 ft 161 kts 250°
2026-05-06 16:52 50.06162 8.67743 1643 ft 143 kts 250°
2026-05-06 16:52 50.05832 8.66352 1452 ft 134 kts 251°
2026-05-06 16:52 50.05517 8.65022 1267 ft 133 kts 251°
2026-05-06 16:52 50.05202 8.63698 1086 ft 132 kts 251°
2026-05-06 16:53 50.04885 8.62361 913 ft 132 kts 253°
2026-05-06 16:53 50.04565 8.61018 732 ft 132 kts 252°
2026-05-06 16:53 50.04246 8.59665 555 ft 134 kts 251°
2026-05-06 16:53 50.03925 8.58307 388 ft 134 kts 252°
2026-05-06 16:54 50.03630 8.57078 355 ft 102 kts 248°
2026-05-06 16:54 50.03445 8.56296 358 ft 49 kts 251°
2026-05-06 16:54 50.03445 8.55989 350 ft 23 kts 278°
2026-05-06 16:54 50.03469 8.55772 347 ft 15 kts 279°
2026-05-06 16:55 50.03530 8.55704 349 ft 10 kts 19°
2026-05-06 16:55 50.03560 8.55778 347 ft 7 kts 85°
2026-05-06 16:55 50.03567 8.55808 352 ft 2 kts 63°
2026-05-06 16:55 50.03589 8.55880 351 ft 13 kts 68°
2026-05-06 16:56 50.03624 8.56027 354 ft 16 kts 70°
2026-05-06 16:56 50.03661 8.56181 353 ft 14 kts 69°
2026-05-06 16:56 50.03697 8.56331 355 ft 16 kts 69°
2026-05-06 16:56 50.03736 8.56492 353 ft 18 kts 69°
2026-05-06 16:57 50.03783 8.56690 360 ft 21 kts 70°
2026-05-06 16:57 50.03834 8.56904 354 ft 21 kts 69°
2026-05-06 16:57 50.03884 8.57118 363 ft 20 kts 70°
2026-05-06 16:57 50.03928 8.57299 368 ft 16 kts 70°
2026-05-06 16:58 50.03961 8.57436 365 ft 14 kts 69°
2026-05-06 16:58 50.04001 8.57607 368 ft 20 kts 70°
2026-05-06 16:58 50.04052 8.57819 366 ft 22 kts 69°
2026-05-06 16:58 50.04103 8.58030 372 ft 21 kts 70°
2026-05-06 16:59 50.04152 8.58235 368 ft 19 kts 70°
2026-05-06 16:59 50.04200 8.58431 371 ft 19 kts 69°
2026-05-06 16:59 50.04244 8.58621 371 ft 18 kts 70°
2026-05-06 16:59 50.04285 8.58786 372 ft 14 kts 71°
2026-05-06 17:00 50.04312 8.58899 375 ft 11 kts 69°
2026-05-06 17:00 50.04344 8.59033 377 ft 14 kts 70°
2026-05-06 17:00 50.04383 8.59195 376 ft 18 kts 70°
2026-05-06 17:00 50.04431 8.59394 376 ft 19 kts 69°
2026-05-06 17:01 50.04508 8.59470 374 ft 14 kts 359°
2026-05-06 17:01 50.04607 8.59465 373 ft 15 kts 358°
2026-05-06 17:01 50.04706 8.59438 372 ft 14 kts 343°
2026-05-06 17:01 50.04777 8.59398 372 ft 7 kts 340°
2026-05-06 17:02 50.04781 8.59396 372 ft 0 kts 340°
2026-05-06 17:02 50.04809 8.59381 371 ft 9 kts 338°
2026-05-06 17:02 50.04843 8.59256 368 ft 15 kts 258°
2026-05-06 17:03 50.04808 8.59107 368 ft 13 kts 249°
2026-05-06 17:03 50.04799 8.59033 373 ft 5 kts 285°
2026-05-06 17:03 50.04830 8.59000 372 ft 7 kts 337°
2026-05-06 17:03 50.04858 8.58983 369 ft 1 kts 339°
2026-05-06 17:04 50.04863 8.58980 368 ft 3 kts 340°
2026-05-06 17:04 50.04870 8.58976 366 ft 0 kts 340°